Regional Weather Roundup
Issued by NWS

Home | Current Version | Previous Version | Text Only | Print | Product List | Glossary Off
Versions: 1 2 3 4 5 6 7 8 9 10 11 12 13 14 15 16 17 18 19 20 21 22 23 24 25 26 27 28 29 30 31 32 33 34 35 36 37 38 39 40 41 42 43 44 45 46 47 48 49 50

000
ASUS43 KFSD 291210
RWRSD

WEATHER ROUNDUP FOR SOUTH DAKOTA
NATIONAL WEATHER SERVICE SIOUX FALLS SD
700 AM CDT SAT AUG 29 2015

NOTE: "FAIR" INDICATES FEW OR NO CLOUDS BELOW 12,000 FEET WITH NO
SIGNIFICANT WEATHER AND/OR OBSTRUCTIONS TO VISIBILITY.


SDZ001>005-009-010-012>017-291300-
NORTHWEST AND NORTH CENTRAL SOUTH DAKOTA

CITY           SKY/WX    TMP DP  RH WIND       PRES   REMARKS
BUFFALO          N/A     63  44  50 CALM      29.96S
FAITH            N/A     66  50  56 N5        30.00S
MOBRIDGE       MOCLDY    61  61 100 CALM      29.94S
$$

SDZ012>016-024>037-041>051-057-063-072>074-291300-
SOUTHWEST AND SOUTH CENTRAL SOUTH DAKOTA

CITY           SKY/WX    TMP DP  RH WIND       PRES   REMARKS
RAPID CTY ARPT PTCLDY    60  53  77 CALM      30.05S
PIERRE         PTCLDY    61  60  97 S6        29.98R
CUSTER         CLEAR     65  39  38 W8        30.22S
ELLSWORTH AFB  PTCLDY    62  51  66 NW8       30.04S
PHILIP         MOCLDY    58  57  97 CALM      30.01S
PINE RIDGE     PTCLDY    51  47  86 CALM      30.09S
WINNER         FAIR      66  60  81 SW10      30.03R
$$

SDZ004>011-016>023-039-040-291300-
NORTHEAST SOUTH DAKOTA

CITY           SKY/WX    TMP DP  RH WIND       PRES   REMARKS
ABERDEEN       CLEAR     60  58  92 S8        29.98R
WATERTOWN      CLEAR     56  54  93 SE7       30.03R
BROOKINGS      MOCLDY    54  50  87 SE3       30.06S
SISSETON         N/A     57  57 100 S5        29.97S
$$

SDZ017-020-022-023-036>040-048>070-291300-
SOUTHEAST SOUTH DAKOTA

CITY           SKY/WX    TMP DP  RH WIND       PRES   REMARKS
SIOUX FALLS    CLEAR     52  51  97 CALM      30.06R FOG
HURON          CLEAR     59  57  93 SE9       30.01R
CHAMBERLAIN    CLEAR     59  59 100 E3        30.03R FOG
MITCHELL       CLEAR     59  57  93 S7        30.04R
YANKTON        CLOUDY    55  55 100 S5        30.06R VSB<1/4
$$

ABBREVIATIONS USED IN REMARKS
   TC - TEMPERATURE IN CELSIUS
  WCI - WIND CHILL INDEX
   HX - HEAT INDEX
  VSB - VISIBILITY




USA.gov is the U.S. government's official web portal to all federal, state and local government web resources and services.